Temperature
12 13 12 12 13 12 12 12 11 12 12 14 13 12 14 15 14 13 13 13 13 12 11 11 10 9 9 9 8 8 7 7 6 6 5 5 5 4 4 3 3 3 3 2
13 13 13 13 13 12 12 12 12 12 12 13 14 14 14 14 13 13 13 13 13 12 11 11 10 9 9 8 8 7 7 6 6 5 5 5 4 4 3 3 3 2 2 2
11 13 13 12 12 12 12 12 12 12 14 14 13 11 13 14 13 13 14 13 12 12 11 11 10 9 8 8 7 7 6 6 5 5 4 4 4 3 3 2 2 2 1 1
9 11 10 12 13 13 13 13 12 12 12 12 12 13 14 14 14 14 13 13 12 11 11 10 9 8 8 7 7 6 6 5 5 4 4 3 3 3 2 2 1 1 1 1
8 9 10 11 12 12 12 12 12 12 11 11 11 11 11 13 13 13 13 13 12 11 10 9 9 8 7 7 6 6 5 5 4 4 3 3 2 2 2 1 1 1 0 -0
7 9 9 11 13 13 13 12 12 11 10 9 10 9 10 12 13 12 12 11 11 10 9 9 8 7 6 6 5 5 5 4 4 3 3 2 2 1 1 0 0 -0 -0 -1
7 8 8 10 12 12 12 12 13 12 11 10 9 11 12 12 12 11 11 10 10 9 8 8 7 6 6 5 5 4 4 4 3 3 2 2 1 1 0 -0 -0 -1 -1 -1
7 7 9 10 10 11 11 12 13 13 13 12 12 12 12 11 11 10 10 9 9 8 7 7 6 6 5 5 4 4 3 3 2 2 2 1 1 0 -0 -1 -1 -1 -1 -1
9 10 11 12 12 13 13 13 13 13 13 12 12 11 11 10 10 9 9 8 7 7 6 6 5 5 5 4 3 3 3 2 2 2 1 1 0 -0 -1 -1 -2 -2 -2 -2
8 8 10 11 12 13 13 13 13 13 12 12 11 11 10 9 9 8 8 7 6 6 6 5 5 4 4 3 3 2 2 2 1 1 1 0 -0 -1 -1 -2 -2 -3 -3 -4
8 9 9 11 12 13 12 12 12 12 12 11 11 10 9 9 8 7 7 6 6 5 5 4 4 4 3 2 2 2 1 1 1 0 -0 -1 -1 -1 -2 -2 -3 -4 -4 -4
9 9 9 11 13 12 12 12 11 11 11 10 10 9 9 8 7 7 6 5 5 4 4 4 3 3 2 2 1 1 1 1 0 -0 -1 -1 -2 -2 -2 -3 -3 -4 -4 -5
12 12 12 12 12 12 11 11 10 10 10 9 9 8 8 7 6 6 5 4 4 4 3 3 3 2 2 1 1 0 0 -0 -1 -1 -2 -2 -3 -3 -3 -3 -4 -4 -4 -5
11 11 10 11 11 11 10 10 9 9 8 8 7 7 6 6 5 5 4 4 3 3 3 2 2 2 1 1 0 -0 -1 -1 -2 -2 -3 -3 -4 -4 -5 -5 -5 -5 -5 -5
10 10 10 10 9 9 9 8 8 7 7 6 6 6 5 5 4 4 3 3 2 2 2 2 1 1 1 -0 -0 -1 -1 -2 -2 -3 -3 -4 -4 -5 -5 -6 -6 -6 -6 -6
8 8 8 8 8 7 7 7 7 6 6 5 5 5 4 4 3 3 2 2 2 1 1 1 1 0 -0 -1 -1 -2 -2 -2 -3 -4 -4 -5 -5 -6 -6 -7 -7 -7 -7 -7
7 6 6 6 6 6 6 6 5 5 5 4 4 3 3 3 2 2 2 1 1 1 1 0 -0 -1 -1 -1 -2 -2 -3 -3 -4 -5 -5 -5 -6 -6 -7 -7 -8 -8 -8 -8
6 6 6 6 5 5 4 4 4 4 3 3 3 2 2 2 2 1 1 1 0 0 0 -0 -1 -1 -2 -2 -3 -3 -4 -4 -5 -5 -6 -6 -7 -7 -8 -8 -8 -8 -8 -8
5 5 5 4 4 4 4 3 3 3 2 2 2 2 1 1 1 0 0 -0 -0 -1 -1 -1 -2 -2 -3 -3 -4 -4 -5 -5 -6 -6 -7 -7 -8 -8 -8 -8 -9 -9 -9 -9
3 3 3 3 3 3 3 2 2 2 1 1 1 1 0 0 -0 -0 -1 -1 -1 -2 -2 -3 -3 -3 -4 -4 -5 -5 -6 -6 -7 -7 -8 -8 -8 -9 -9 -9 -9 -9 -10 -10
2 2 2 2 2 2 2 1 1 1 1 0 0 -0 -0 -1 -1 -1 -2 -2 -2 -3 -3 -3 -4 -4 -5 -6 -6 -6 -7 -7 -8 -8 -8 -9 -9 -9 -9 -10 -10 -10 -10 -10
1 1 1 1 1 1 1 0 0 -0 -0 -1 -1 -1 -1 -2 -2 -2 -3 -3 -3 -4 -4 -5 -5 -6 -6 -7 -7 -7 -8 -8 -9 -9 -9 -9 -10 -10 -10 -10 -10 -10 -11 -11
0 0 0 0 0 -0 -0 -1 -1 -1 -1 -1 -2 -2 -2 -3 -3 -4 -4 -4 -4 -5 -6 -6 -6 -7 -7 -8 -8 -8 -9 -9 -9 -10 -10 -10 -10 -11 -11 -11 -11 -11 -11 -11
-0 -0 -1 -1 -1 -1 -1 -1 -1 -2 -2 -2 -3 -3 -3 -4 -4 -4 -5 -5 -6 -6 -6 -7 -7 -8 -8 -9 -9 -9 -10 -10 -10 -11 -11 -11 -11 -11 -11 -11 -11 -11 -12 -12
-1 -1 -1 -2 -2 -2 -2 -2 -2 -3 -3 -3 -3 -4 -4 -5 -5 -5 -6 -6 -6 -7 -7 -8 -8 -9 -9 -9 -10 -10 -10 -11 -11 -11 -11 -11 -12 -12 -12 -12 -12 -12 -12 -12
-2 -2 -2 -2 -3 -3 -3 -3 -3 -4 -4 -4 -4 -5 -5 -5 -6 -6 -7 -7 -7 -8 -8 -9 -9 -9 -10 -10 -10 -11 -11 -11 -11 -12 -12 -12 -12 -12 -12 -12 -12 -12 -12 -12
-3 -3 -3 -3 -3 -4 -4 -4 -5 -5 -5 -6 -6 -6 -6 -6 -7 -7 -8 -8 -8 -9 -9 -10 -10 -10 -11 -11 -11 -11 -11 -12 -12 -12 -12 -12 -12 -12 -12 -12 -13 -13 -13 -12
Wind_Speed
7 6 6 8 9 11 13 13 11 10 11 13 10 10 10 9 9 9 10 12 14 14 12 11 10 10 9 8 7 6 6 4 4 4 4 4 5 6 6 6 7 8 8 9
5 6 7 7 9 11 12 11 12 11 12 11 8 6 7 8 10 12 12 13 13 12 12 13 12 11 9 8 7 6 5 5 4 4 4 5 6 6 7 7 8 8 8 9
5 3 2 8 10 11 8 9 11 14 16 9 6 8 10 10 11 13 13 12 13 13 13 13 12 11 10 8 6 6 5 4 4 4 5 6 7 7 8 8 8 9 9 9
4 4 8 9 6 9 10 11 11 10 8 7 9 7 5 7 10 10 10 10 11 10 10 9 8 8 8 7 6 5 4 4 5 5 6 7 7 8 8 7 8 9 10 10
5 6 7 8 6 7 9 9 9 11 9 5 3 2 3 3 6 8 8 8 9 9 9 9 9 8 8 6 5 4 5 6 6 6 7 7 8 9 8 8 9 9 9 10
6 6 8 9 5 4 5 7 7 8 9 7 7 3 5 3 5 5 6 7 8 8 8 9 8 8 7 5 5 6 7 7 7 6 7 8 9 9 8 8 9 9 10 10
7 7 8 8 4 6 6 9 4 6 8 10 9 7 4 6 5 6 7 8 9 10 9 8 7 7 6 5 6 7 6 6 6 7 8 9 9 8 8 9 9 9 11 11
7 6 10 7 8 9 9 3 4 5 7 8 6 4 6 7 7 8 8 8 8 8 7 6 6 6 5 6 6 5 5 6 7 8 8 7 8 9 8 9 9 10 10 11
11 10 5 8 10 7 6 6 6 6 6 8 7 6 7 7 8 8 8 8 6 7 6 4 5 6 6 6 5 5 6 7 8 8 8 8 8 9 8 8 8 9 9 11
6 8 6 6 5 5 6 6 6 6 7 9 8 8 8 8 8 7 6 6 6 6 6 4 4 5 6 5 5 5 7 8 8 8 8 8 7 7 7 8 9 9 10 11
6 6 3 5 8 8 6 5 5 5 6 8 9 8 9 8 8 7 6 5 5 6 6 5 4 5 5 5 5 6 8 8 8 8 8 8 8 8 9 8 10 11 10 10
9 8 8 7 7 8 8 8 8 7 5 5 7 8 8 8 7 7 6 5 5 5 5 5 5 6 6 6 6 6 7 8 7 7 7 7 8 10 14 15 21 22 21 20
6 5 6 3 3 6 7 7 7 7 7 6 5 6 8 6 6 6 6 5 5 5 5 5 5 7 7 6 6 7 8 8 7 7 7 8 8 9 12 14 18 20 22 23
4 5 4 4 4 5 6 6 6 6 5 6 5 6 6 6 5 6 6 5 5 4 5 5 6 8 8 6 7 8 8 10 9 7 8 8 8 9 10 12 14 11 14 21
3 4 5 5 5 6 6 7 7 6 5 5 5 6 7 6 5 5 4 3 3 4 5 6 7 9 7 7 7 9 8 7 7 8 8 8 9 9 10 12 13 13 11 13
4 5 6 7 7 6 6 6 6 6 5 5 5 5 4 4 4 3 2 3 3 5 6 7 8 9 8 7 8 8 8 14 13 8 8 8 9 10 11 11 12 12 13 12
7 6 6 6 6 5 5 5 6 6 5 5 5 4 4 3 2 2 3 3 5 6 7 8 9 9 8 8 8 7 7 10 16 12 9 9 9 10 11 11 12 13 13 15
6 6 7 8 8 7 6 5 6 6 5 4 5 4 3 3 3 4 4 4 5 7 8 8 9 9 9 9 8 7 8 8 8 9 10 9 11 11 11 12 13 14 13 14
6 7 7 7 8 8 7 6 5 5 5 5 4 3 2 2 3 4 4 4 6 9 8 8 13 10 9 10 11 7 8 10 10 10 10 15 15 11 11 12 13 13 13 13
7 8 9 8 8 7 7 6 6 5 3 3 3 1 1 3 3 4 5 6 7 7 8 10 10 9 9 10 14 8 9 10 11 11 11 11 12 12 12 13 13 13 12 12
9 9 9 9 8 7 6 6 5 4 2 2 1 1 3 4 4 4 5 7 8 8 9 13 9 8 8 11 15 9 9 10 11 11 12 12 12 13 13 13 13 13 13 13
8 8 9 8 8 6 5 4 3 2 1 1 1 2 4 5 6 6 7 7 9 12 10 7 7 12 15 18 9 9 10 11 11 11 11 12 13 13 14 14 13 13 13 13
7 8 7 7 6 4 4 3 2 1 1 2 3 4 5 6 5 6 9 6 6 13 11 8 14 21 24 14 8 9 10 11 12 12 12 12 13 13 13 14 13 13 12 12
7 7 6 5 5 4 3 2 3 2 3 4 5 6 6 6 6 6 7 13 16 18 11 14 22 24 23 10 8 9 10 11 12 12 12 12 12 12 13 13 13 13 13 14
6 5 5 4 4 2 2 3 3 4 4 4 6 6 6 5 7 8 8 10 15 18 11 15 22 23 15 10 10 11 11 12 13 13 12 12 12 13 13 13 14 14 13 13
4 3 2 2 1 1 2 2 3 4 5 6 6 6 6 6 8 8 9 10 12 17 13 11 12 15 11 11 12 12 12 14 15 13 12 13 14 14 14 14 15 14 14 14
4 3 2 2 2 2 2 3 4 5 5 7 8 8 7 8 8 9 10 10 11 11 11 11 10 11 11 11 12 12 12 12 13 13 13 13 13 13 14 15 14 14 13 14
Wind_Direction
212 215 175 199 206 195 201 210 214 233 235 247 240 232 229 218 203 193 191 189 187 184 179 172 167 166 164 163 162 158 159 175 206 226 240 254 266 272 275 277 278 278 281 283
216 214 202 222 225 210 215 221 228 246 258 250 246 226 222 213 198 198 198 194 187 179 174 173 172 169 165 165 166 161 172 199 218 234 250 261 266 270 275 277 277 277 277 278
219 227 193 245 222 209 212 212 204 229 245 249 232 225 222 212 202 201 199 190 182 180 178 176 173 167 169 170 164 168 188 211 229 240 255 263 268 272 273 275 275 278 277 275
169 158 225 241 225 208 217 234 219 227 244 234 226 225 230 206 195 199 192 183 179 172 168 163 158 157 155 154 161 178 203 228 241 246 257 266 270 270 271 270 272 274 276 275
157 205 258 283 245 195 203 250 230 227 236 226 168 88 314 239 191 193 186 174 167 161 154 148 152 153 148 155 168 191 222 239 244 245 255 264 268 269 271 273 275 273 273 274
154 186 227 239 230 182 152 262 246 207 208 184 140 171 248 211 162 154 146 143 142 137 135 145 153 148 150 170 189 219 233 241 247 248 252 259 264 269 271 270 273 277 278 275
178 211 249 246 210 125 178 241 230 188 188 173 185 202 189 142 133 136 133 134 136 138 145 155 154 148 164 189 218 231 238 248 256 255 255 259 266 268 272 276 278 279 281 279
174 204 244 219 151 184 214 195 173 176 177 178 184 143 139 144 142 140 135 136 139 140 146 153 155 158 184 218 233 240 247 256 261 263 265 270 268 273 275 277 281 283 285 285
193 213 229 186 197 207 172 176 185 178 179 162 157 164 161 158 155 151 147 146 144 145 150 166 176 176 202 232 239 245 254 261 266 269 268 267 267 275 281 279 280 285 286 289
216 247 237 220 219 203 190 191 185 175 166 162 168 171 168 163 162 157 153 154 149 150 165 192 206 208 219 237 241 246 258 266 269 272 275 272 268 269 273 276 279 283 286 288
220 246 238 239 219 207 188 170 161 159 169 173 165 169 171 170 170 168 163 160 159 170 189 211 222 236 242 243 244 254 262 268 272 271 272 277 273 267 272 263 267 280 281 280
211 207 192 220 215 184 176 185 179 166 162 163 168 170 167 170 170 166 166 163 170 186 205 224 234 249 254 251 246 253 266 271 271 273 274 275 281 287 280 279 286 288 288 289
198 181 181 200 169 169 182 187 175 169 164 158 157 158 157 158 161 160 164 173 190 206 220 234 247 259 263 259 252 251 259 269 272 271 274 276 279 286 294 295 289 289 290 292
157 131 147 180 171 158 150 143 133 126 132 138 139 136 139 139 147 162 180 195 203 217 236 245 254 263 266 261 258 259 262 271 275 269 269 273 276 278 283 291 297 293 289 291
165 157 161 147 127 121 120 121 121 125 124 118 123 134 142 149 165 183 192 197 213 240 252 255 261 268 271 265 263 265 267 269 270 269 269 270 274 277 280 283 287 291 292 291
140 121 126 134 142 137 131 137 141 148 142 135 135 143 149 152 160 178 203 208 227 251 259 262 265 270 274 272 270 271 269 278 285 279 273 274 276 279 282 284 286 287 289 290
148 160 161 159 158 149 150 151 152 151 146 144 148 139 130 127 146 226 251 250 246 254 261 263 269 276 277 273 270 272 271 278 286 286 276 276 278 279 280 283 284 286 286 288
172 174 168 161 156 147 138 132 133 135 139 144 133 130 140 169 221 253 267 277 282 281 274 267 270 279 276 274 272 269 271 273 273 274 278 278 280 279 281 283 285 286 289 291
124 126 125 128 132 131 128 126 125 122 121 126 132 151 189 228 246 263 276 281 283 286 283 278 294 294 282 281 288 273 272 276 278 278 278 284 288 283 283 284 285 285 288 290
102 104 106 104 104 110 114 112 109 104 105 114 120 133 270 276 277 280 280 274 265 263 273 286 290 281 279 282 291 278 274 277 281 284 284 283 284 285 284 285 285 285 286 287
105 104 104 103 97 92 96 102 104 101 88 95 132 252 275 285 285 281 281 287 281 273 280 292 292 284 287 289 293 282 279 281 283 285 286 287 287 287 287 287 287 287 287 286
103 103 102 100 97 87 75 76 85 88 61 5 317 291 289 290 288 282 265 265 280 293 297 284 282 290 298 299 290 286 285 286 287 287 286 286 287 287 288 287 286 286 286 284
98 98 96 92 93 85 62 55 54 47 332 302 294 289 283 280 279 284 292 283 283 296 300 284 293 300 303 303 290 288 288 288 288 287 286 285 285 285 285 286 285 286 286 285
94 89 85 82 80 72 48 8 353 332 301 290 281 277 279 288 286 268 269 292 302 302 297 295 302 304 307 301 290 289 288 287 286 285 284 284 284 284 284 285 284 284 283 282
88 84 78 72 63 44 357 338 333 320 309 297 289 284 277 269 278 290 288 289 298 303 297 299 303 305 305 292 290 288 287 285 286 288 286 288 288 288 286 285 284 283 284 283
80 78 69 60 40 327 318 318 310 307 307 305 301 293 288 284 282 287 291 290 289 299 300 295 294 297 293 289 288 288 287 290 291 289 285 286 286 286 286 286 284 285 285 284
70 62 48 23 3 339 315 304 299 300 300 300 301 299 297 297 296 296 296 298 298 297 296 295 294 293 293 292 291 290 289 288 287 286 286 285 285 285 285 284 285 285 284 283
Height
1474 1472 1476 1477 1476 1479 1484 1484 1489 1483 1479 1470 1467 1466 1465 1465 1467 1469 1471 1473 1476 1479 1482 1486 1490 1493 1496 1499 1501 1502 1503 1503 1503 1503 1502 1500 1498 1496 1494 1491 1488 1485 1482 1478
1471 1470 1472 1473 1472 1473 1475 1475 1477 1475 1471 1460 1461 1461 1462 1462 1463 1464 1466 1468 1471 1475 1478 1482 1485 1489 1492 1494 1497 1498 1499 1499 1499 1498 1496 1495 1493 1491 1488 1485 1482 1479 1475 1471
1477 1471 1471 1476 1468 1467 1468 1466 1467 1469 1461 1456 1458 1458 1457 1457 1458 1459 1461 1464 1467 1470 1474 1477 1481 1485 1488 1490 1492 1494 1494 1494 1494 1492 1491 1489 1487 1485 1482 1479 1475 1472 1468 1464
1479 1476 1484 1466 1455 1456 1458 1457 1456 1455 1452 1452 1452 1452 1453 1453 1455 1456 1459 1461 1464 1468 1471 1475 1478 1482 1485 1487 1488 1489 1490 1489 1488 1487 1485 1483 1481 1478 1475 1472 1468 1464 1461 1457
1481 1479 1473 1462 1453 1453 1456 1455 1449 1449 1449 1449 1450 1451 1451 1452 1453 1455 1457 1459 1462 1465 1469 1472 1475 1478 1481 1483 1484 1484 1485 1484 1483 1481 1479 1477 1474 1471 1468 1464 1460 1457 1453 1449
1477 1476 1474 1457 1446 1445 1450 1454 1443 1443 1444 1447 1449 1455 1452 1450 1452 1454 1456 1458 1461 1463 1467 1470 1472 1475 1477 1478 1479 1480 1479 1479 1477 1475 1473 1470 1467 1464 1461 1457 1452 1448 1444 1441
1471 1470 1463 1448 1443 1446 1457 1450 1440 1439 1440 1443 1445 1447 1447 1448 1450 1452 1454 1457 1459 1462 1464 1467 1470 1472 1473 1474 1475 1475 1474 1473 1471 1469 1467 1464 1460 1457 1453 1449 1444 1440 1436 1432
1465 1467 1460 1440 1442 1445 1441 1437 1437 1438 1439 1441 1442 1444 1445 1447 1449 1451 1453 1455 1458 1460 1462 1465 1467 1468 1469 1470 1470 1470 1468 1467 1465 1463 1460 1457 1453 1449 1445 1441 1436 1431 1426 1421
1444 1442 1434 1432 1433 1433 1434 1435 1436 1437 1438 1440 1441 1442 1444 1446 1448 1450 1452 1454 1456 1458 1461 1462 1464 1465 1465 1465 1465 1463 1462 1460 1458 1455 1452 1449 1445 1441 1437 1433 1428 1422 1417 1411
1436 1433 1430 1429 1429 1431 1432 1433 1434 1436 1437 1438 1439 1440 1442 1444 1446 1448 1450 1453 1455 1457 1458 1459 1460 1461 1461 1460 1459 1457 1455 1453 1451 1448 1444 1441 1437 1433 1428 1424 1419 1414 1409 1403
1430 1427 1426 1426 1426 1428 1429 1431 1433 1434 1435 1436 1437 1439 1440 1442 1444 1446 1449 1451 1453 1454 1455 1456 1456 1456 1456 1455 1453 1451 1449 1446 1443 1440 1436 1432 1428 1425 1420 1416 1412 1406 1400 1396
1423 1420 1421 1421 1422 1424 1426 1428 1430 1431 1433 1434 1435 1437 1439 1440 1442 1444 1447 1448 1450 1451 1452 1452 1452 1451 1451 1449 1447 1444 1441 1438 1435 1431 1427 1423 1418 1414 1410 1407 1402 1398 1393 1389
1413 1414 1416 1418 1419 1421 1424 1425 1427 1429 1430 1432 1433 1435 1437 1438 1440 1442 1444 1445 1446 1447 1448 1447 1447 1446 1445 1443 1440 1437 1434 1430 1426 1423 1419 1414 1410 1404 1398 1394 1392 1388 1384 1379
1410 1412 1414 1416 1417 1419 1421 1423 1425 1426 1428 1429 1431 1433 1435 1436 1438 1439 1441 1442 1443 1443 1443 1442 1441 1440 1439 1436 1433 1429 1426 1422 1418 1414 1410 1406 1401 1396 1391 1385 1379 1374 1372 1369
1408 1410 1411 1413 1415 1417 1419 1420 1422 1424 1425 1427 1429 1431 1432 1434 1435 1437 1438 1439 1439 1438 1438 1437 1435 1434 1432 1428 1425 1421 1417 1414 1409 1405 1401 1397 1392 1387 1382 1377 1371 1365 1360 1357
1405 1407 1409 1411 1412 1414 1416 1418 1420 1422 1423 1425 1427 1429 1430 1431 1433 1434 1434 1434 1434 1433 1432 1430 1428 1426 1424 1420 1416 1412 1409 1405 1401 1396 1391 1387 1383 1378 1373 1368 1362 1357 1352 1348
1402 1404 1406 1408 1410 1412 1414 1416 1418 1420 1422 1423 1425 1426 1428 1429 1429 1430 1430 1430 1429 1427 1426 1424 1421 1418 1415 1412 1408 1403 1399 1395 1391 1387 1382 1378 1373 1368 1363 1359 1353 1348 1343 1340
1399 1401 1403 1405 1407 1410 1412 1414 1416 1418 1420 1422 1423 1424 1425 1425 1426 1425 1425 1424 1422 1421 1420 1417 1413 1410 1407 1403 1399 1394 1390 1385 1381 1377 1372 1368 1363 1359 1354 1349 1344 1339 1334 1330
1396 1399 1401 1404 1406 1409 1411 1413 1415 1417 1419 1420 1421 1421 1422 1422 1422 1421 1420 1418 1416 1413 1411 1409 1405 1402 1398 1394 1390 1385 1381 1376 1371 1367 1363 1358 1354 1349 1345 1340 1335 1330 1326 1321
1395 1398 1400 1403 1406 1408 1410 1412 1414 1416 1417 1418 1418 1418 1418 1418 1417 1415 1414 1412 1410 1407 1403 1400 1396 1393 1389 1385 1381 1376 1372 1367 1362 1357 1353 1348 1344 1339 1335 1330 1325 1321 1316 1312
1396 1398 1401 1403 1406 1408 1410 1412 1413 1414 1415 1415 1415 1415 1414 1413 1412 1410 1407 1404 1403 1400 1396 1392 1388 1384 1380 1375 1371 1367 1363 1358 1353 1348 1344 1339 1334 1329 1325 1320 1316 1311 1307 1302
1397 1399 1402 1404 1406 1408 1410 1411 1412 1413 1413 1413 1412 1411 1410 1408 1406 1404 1401 1399 1395 1391 1387 1383 1379 1375 1371 1367 1362 1357 1353 1348 1344 1339 1334 1329 1324 1320 1315 1310 1306 1301 1297 1293
1399 1401 1403 1405 1407 1408 1409 1410 1410 1410 1410 1409 1408 1407 1405 1403 1400 1397 1393 1390 1387 1383 1379 1374 1370 1366 1362 1357 1352 1348 1343 1338 1333 1329 1324 1319 1314 1310 1305 1300 1296 1291 1287 1282
1401 1403 1404 1406 1407 1407 1408 1408 1408 1408 1407 1406 1404 1402 1400 1396 1393 1390 1387 1382 1379 1374 1370 1365 1361 1357 1353 1348 1343 1338 1333 1328 1323 1318 1314 1309 1305 1300 1295 1290 1286 1281 1277 1272
1402 1404 1405 1406 1406 1406 1406 1406 1405 1404 1403 1401 1399 1397 1394 1390 1386 1382 1378 1374 1370 1365 1360 1356 1352 1347 1342 1337 1332 1327 1322 1318 1313 1309 1304 1299 1294 1290 1285 1280 1275 1271 1266 1262
1403 1404 1404 1405 1405 1405 1404 1403 1401 1399 1397 1394 1392 1389 1386 1383 1379 1375 1370 1365 1361 1356 1351 1346 1342 1337 1332 1327 1322 1317 1312 1308 1303 1298 1293 1289 1284 1279 1274 1270 1265 1260 1256 1251
1403 1403 1403 1403 1403 1402 1401 1399 1397 1394 1392 1388 1385 1382 1379 1375 1371 1366 1362 1357 1352 1347 1342 1337 1333 1328 1323 1318 1312 1307 1303 1298 1293 1288 1283 1278 1273 1269 1264 1259 1254 1250 1245 1241